Theta_e
316 316 316 317 317 317 318 317 316 315 315 315 317 317 318 317 317 318 316 315 316 316 315 315 314 314 316 316 315 315 314 317 317 320 322 322 323 317 313 312 311 307 306 306 306 305 303
320 317 316 316 317 317 317 318 316 316 315 315 315 317 317 317 317 318 317 315 315 316 315 315 314 314 316 315 315 314 314 316 316 317 319 321 322 318 313 309 309 307 305 303 304 303 302
324 322 318 316 317 317 317 317 317 316 316 315 315 316 317 317 317 318 318 316 315 316 316 315 314 313 315 315 314 314 314 315 316 317 319 320 319 317 312 307 306 306 304 303 303 303 302
325 324 323 318 317 317 317 316 317 317 316 316 315 315 317 318 317 317 318 316 315 315 316 315 314 313 315 314 314 314 314 313 315 316 316 316 316 314 311 308 307 305 305 307 304 303 302
326 325 325 324 319 317 317 317 316 317 316 315 316 315 315 318 318 318 318 317 314 315 315 313 314 314 314 314 314 313 314 314 314 315 315 315 315 310 309 307 308 307 310 309 306 303 302
327 326 326 325 324 319 317 318 316 316 317 316 315 316 316 316 318 318 318 316 314 314 315 315 314 313 313 314 314 313 313 314 314 314 314 314 313 304 302 307 307 310 309 309 309 304 302
326 326 325 325 325 323 318 317 318 316 316 316 316 316 315 315 318 318 318 315 319 316 315 315 315 314 314 314 314 313 313 313 314 314 312 311 310 310 306 306 307 308 308 309 308 305 303
322 324 324 325 325 324 323 318 318 317 315 316 316 316 316 316 317 318 317 318 318 317 315 315 314 314 314 313 313 313 313 313 314 313 311 309 311 308 307 307 306 308 308 306 306 305 304
320 322 321 324 324 325 324 323 318 318 316 316 316 316 316 316 317 317 317 317 317 316 314 314 314 314 313 313 313 313 313 313 311 310 309 311 310 308 308 306 306 305 306 304 304 304 304
318 320 322 324 323 325 324 324 322 318 318 315 316 316 316 316 317 318 318 318 316 315 309 312 313 314 313 313 312 312 313 314 311 308 307 307 307 307 308 307 304 306 304 305 306 303 303
314 318 319 321 323 325 325 324 324 320 319 316 315 316 316 315 317 319 318 318 314 318 313 313 313 313 313 313 312 312 312 314 311 310 309 309 308 307 308 307 304 305 304 306 306 305 305
311 311 315 317 319 321 323 324 324 324 319 319 315 316 316 315 316 318 318 316 316 312 313 314 312 312 313 312 312 312 312 312 310 308 305 306 306 304 304 304 304 303 305 305 304 303 307
305 310 311 314 316 318 321 323 324 324 324 319 317 315 316 315 316 317 318 317 311 313 314 314 312 312 312 312 311 311 311 310 309 311 311 308 307 305 304 305 304 303 303 306 307 306 308
299 303 312 312 315 317 319 321 324 323 323 324 319 315 316 316 315 318 317 315 315 313 315 314 313 312 313 311 311 311 310 310 308 310 308 311 311 306 302 303 304 304 303 305 310 307 304
297 298 302 311 315 316 318 320 321 322 322 323 323 316 316 315 315 316 316 313 313 316 316 314 314 314 314 313 312 311 309 308 307 306 310 311 312 303 302 301 302 304 304 301 301 303 305
296 297 298 302 312 315 316 318 320 322 322 323 322 316 315 315 314 315 312 312 313 315 315 314 315 313 313 313 313 310 309 309 309 307 307 309 310 304 303 303 301 303 301 305 302 307 309
295 296 297 298 302 312 315 316 318 320 322 322 320 315 315 315 315 316 312 311 314 316 316 315 314 314 313 313 311 310 310 309 308 306 306 306 307 306 305 304 303 301 301 300 300 301 304
295 296 296 297 298 303 311 313 318 319 322 322 315 312 315 315 313 309 312 313 316 316 315 314 314 315 313 311 311 311 311 310 307 306 306 306 304 307 307 302 301 302 303 301 305 304 297
295 295 295 295 297 299 306 313 317 319 321 319 314 313 314 314 311 309 311 314 316 315 314 314 314 314 314 312 315 312 310 306 307 306 306 304 305 306 307 305 303 303 301 300 299 299 300
295 294 294 294 295 297 300 309 316 317 319 320 313 311 313 313 312 310 313 314 315 315 315 314 314 314 314 314 312 312 309 305 305 306 308 305 304 306 307 307 305 304 302 301 301 298 300
295 294 294 295 295 295 297 301 311 316 317 321 313 311 312 309 310 311 310 313 314 315 313 313 313 313 313 313 313 313 307 304 304 307 304 303 305 305 306 307 306 307 304 300 300 301 305
296 296 294 298 299 297 296 298 305 313 317 320 314 312 313 311 313 309 310 312 315 315 312 312 312 312 311 311 312 313 307 305 306 303 302 300 305 306 308 305 305 306 304 301 300 300 300
297 296 295 296 298 298 298 297 300 310 315 318 316 313 312 310 310 310 310 311 313 314 313 312 311 311 311 311 312 311 309 307 306 302 301 302 303 303 307 306 305 307 303 303 299 298 301
297 296 295 294 295 295 295 297 298 307 313 317 318 314 312 309 309 309 312 312 312 313 314 309 310 310 308 310 309 307 305 303 303 301 302 301 303 301 303 306 310 309 302 302 303 302 299
299 296 295 295 294 293 293 295 297 304 311 315 316 315 313 309 310 311 312 312 310 308 308 307 307 308 308 308 305 306 305 306 303 299 301 301 302 300 306 305 307 307 300 302 303 307 303
301 299 296 295 294 294 293 294 296 299 307 312 314 315 313 312 312 314 314 314 311 306 304 305 305 305 306 306 305 309 311 309 306 303 301 301 299 302 299 305 310 307 305 303 304 307 305
301 300 298 296 294 295 297 297 296 297 301 309 312 314 314 312 313 312 311 311 310 307 304 302 304 305 307 303 307 306 310 305 307 304 301 300 297 302 301 302 305 304 303 304 309 308 306
301 300 299 297 294 295 296 297 296 296 298 305 309 312 314 313 314 314 313 313 312 307 306 304 304 304 302 304 307 308 309 307 305 303 301 304 302 301 300 304 309 303 302 306 308 309 308
301 300 300 297 295 294 295 297 296 295 296 298 306 309 311 312 313 314 314 314 311 309 307 304 305 304 306 303 304 306 310 304 306 309 298 304 305 305 305 307 306 305 307 309 308 309 308
Wind_Speed
7 7 7 6 7 7 8 8 9 9 8 7 6 6 3 2 3 3 4 3 4 4 4 4 4 1 2 1 1 5 7 3 5 2 5 4 4 6 5 6 5 6 3 8 11 11 12
7 7 7 7 7 7 7 7 8 8 8 8 6 5 5 4 4 4 4 5 4 5 4 5 3 2 2 1 2 4 7 4 2 2 4 6 4 10 11 6 5 5 14 13 7 8 10
6 7 7 7 7 7 8 8 7 7 8 8 7 6 5 5 5 5 5 6 5 5 5 5 4 2 1 1 1 1 4 6 7 5 8 11 12 3 8 6 10 13 5 4 4 6 2
8 7 7 7 7 7 8 8 8 7 7 7 8 7 6 6 6 6 6 6 6 5 6 4 3 2 1 2 0 1 3 6 7 9 10 10 5 12 6 17 5 4 4 2 3 7 6
11 9 8 7 7 7 7 8 8 8 8 8 8 7 7 7 7 7 7 6 5 4 5 3 2 2 2 3 1 3 4 3 5 7 11 7 5 9 6 5 3 3 2 1 1 12 5
14 13 10 9 8 8 7 8 8 8 8 8 8 7 7 7 7 7 7 4 4 5 5 5 6 2 4 2 2 2 6 5 2 4 2 2 5 4 3 3 2 3 2 3 4 6 4
14 14 13 11 10 8 8 8 8 8 8 8 8 8 7 6 6 6 5 3 2 2 6 4 2 2 3 4 3 0 5 5 3 2 2 3 5 1 4 4 2 1 1 3 2 4 5
18 19 16 14 12 10 8 8 9 8 9 8 8 8 7 6 5 4 3 2 3 0 3 7 6 5 5 6 2 2 3 3 3 2 2 5 1 2 2 1 1 3 2 3 0 3 5
14 16 19 17 15 13 10 9 8 8 8 8 8 8 7 5 3 2 2 1 3 3 0 3 6 4 4 7 3 4 3 4 3 3 1 4 1 3 2 2 2 1 2 1 3 3 1
12 17 15 16 15 15 13 10 9 9 8 8 8 8 6 3 3 4 4 2 2 1 4 4 3 3 5 4 2 1 3 3 3 4 4 3 0 1 1 0 2 2 1 1 1 3 2
8 11 12 14 15 15 15 12 11 9 9 9 8 7 6 2 3 5 3 1 2 1 2 2 3 4 5 4 2 2 1 2 5 4 3 1 1 1 1 1 2 1 0 1 1 2 3
9 10 11 13 16 16 16 14 13 10 9 8 8 8 5 4 6 6 2 2 4 4 6 3 3 3 3 2 2 1 0 3 5 4 4 2 1 2 1 1 2 3 3 5 4 2 2
10 10 10 11 14 16 17 15 14 13 10 8 8 8 6 5 4 7 3 6 4 3 2 4 4 3 2 3 1 1 1 1 3 3 2 1 0 1 2 1 1 3 4 3 3 4 4
12 11 11 9 10 10 15 17 16 14 13 10 8 8 8 6 8 6 6 4 3 4 5 1 3 3 4 5 1 3 2 2 3 3 3 3 3 1 2 1 1 1 3 4 3 2 5
13 13 12 11 10 8 8 10 17 15 14 12 10 8 7 6 9 10 6 2 7 5 2 6 2 3 3 2 3 2 5 4 5 7 5 4 2 0 3 2 1 1 2 2 5 2 2
12 13 14 13 11 12 11 11 12 11 10 10 9 7 6 6 9 11 3 5 4 5 2 2 5 3 6 4 4 4 5 2 3 2 1 4 2 1 0 2 4 1 4 2 3 0 4
11 11 13 14 14 14 13 13 13 12 9 8 6 4 5 11 9 7 3 7 5 5 4 4 3 5 5 6 7 5 5 1 3 2 1 3 3 1 2 3 5 1 1 5 4 3 4
13 11 11 12 13 14 14 14 12 11 9 6 4 1 7 13 4 1 3 5 4 4 3 3 3 2 7 6 5 4 6 3 4 6 4 2 4 3 5 1 1 1 2 4 4 3 1
14 13 12 11 12 13 13 11 12 12 7 6 3 4 7 15 3 2 4 4 3 2 3 4 3 3 1 5 3 4 3 0 3 3 5 5 0 2 1 1 2 3 4 4 5 3 6
15 13 11 10 12 14 14 14 12 11 13 10 3 1 3 10 3 5 4 4 4 4 3 4 3 4 3 2 3 4 4 1 1 3 3 1 2 6 6 5 5 4 5 5 5 3 4
15 13 11 10 10 13 15 15 15 14 14 11 5 4 3 3 4 5 5 2 5 5 6 7 1 5 6 5 1 4 2 1 0 3 3 4 4 4 5 6 4 6 5 9 9 6 7
16 13 13 11 8 9 12 16 16 15 16 13 5 3 2 2 1 7 2 3 5 3 6 4 5 7 7 7 9 6 6 5 5 1 4 1 2 2 4 1 6 6 9 11 10 4 10
18 15 14 14 10 8 11 12 16 17 16 12 14 6 1 2 1 5 5 7 7 5 4 3 7 5 5 8 5 3 7 3 10 9 7 5 5 3 5 4 5 8 9 15 7 6 8
20 18 15 15 13 10 9 10 14 19 20 20 15 10 6 3 2 5 3 5 2 3 3 2 3 6 5 13 18 16 16 13 9 6 6 6 5 3 3 3 2 6 3 6 13 5 14
23 20 18 15 14 12 12 10 13 17 19 20 20 12 7 2 5 5 5 3 1 2 1 2 2 5 23 6 4 4 4 3 2 4 2 2 4 2 3 3 8 2 4 8 8 8 20
25 22 19 16 14 12 11 11 11 15 19 17 18 18 8 4 6 8 3 6 4 3 3 2 2 13 8 4 3 6 5 5 3 1 4 5 6 4 3 4 5 5 3 7 4 6 6
28 24 21 18 15 13 11 10 9 11 16 17 17 19 17 6 5 7 5 3 2 2 2 1 5 7 3 2 3 3 5 5 5 7 5 3 2 5 2 3 9 6 6 9 3 7 6
30 26 23 20 18 15 13 11 10 9 9 18 17 20 21 11 9 10 16 11 8 3 4 5 4 1 3 2 4 4 4 7 4 5 6 8 7 4 3 2 9 13 8 8 5 3 7
33 29 26 22 19 17 15 12 10 10 9 12 18 19 18 14 7 18 23 17 11 8 3 8 3 4 9 3 1 2 2 2 4 4 2 3 7 6 10 7 3 29 8 21 4 4 7
Wind_Direction
347 349 343 348 354 353 352 353 355 360 4 6 353 340 328 284 237 253 284 289 295 284 271 297 330 323 221 256 298 339 354 305 338 274 225 215 187 129 99 101 74 84 120 83 123 120 111
342 342 343 338 342 347 347 348 347 348 354 354 352 333 320 294 267 258 281 287 294 274 258 291 314 333 217 240 290 359 15 358 10 28 230 211 194 137 99 65 61 105 111 116 114 117 129
306 328 336 338 331 336 341 340 339 340 343 346 343 331 311 296 274 266 283 285 289 270 259 276 299 273 245 196 271 42 37 52 55 57 104 110 132 132 105 100 111 115 85 87 133 146 136
279 294 315 327 328 326 330 333 332 332 332 336 337 329 312 295 283 274 278 280 287 268 255 273 283 264 223 196 132 179 102 65 71 73 86 96 121 104 86 116 81 74 77 108 200 168 174
263 273 288 306 319 322 320 325 326 324 325 326 331 328 317 299 286 279 279 278 282 256 235 251 253 264 249 191 225 239 207 151 92 86 85 93 115 93 113 90 46 20 245 202 234 200 152
253 257 267 283 301 314 312 315 319 319 317 320 322 325 316 299 289 287 287 274 256 243 243 255 252 292 227 205 186 181 206 200 178 152 123 43 75 79 48 77 247 214 232 224 234 211 171
245 253 256 264 274 293 308 306 313 316 313 311 314 319 316 301 287 296 290 281 209 179 222 224 269 232 181 189 197 356 184 186 170 154 100 41 67 236 202 191 221 146 215 261 206 175 151
245 251 247 256 265 275 291 301 302 311 311 307 307 309 313 300 281 289 296 20 72 8 307 245 238 227 204 206 238 197 168 172 151 128 103 27 208 185 175 83 253 217 245 269 306 136 172
249 248 248 245 253 261 273 290 298 303 309 305 304 305 307 295 264 240 208 208 324 314 301 261 220 210 203 213 237 219 211 158 114 99 356 156 168 137 144 48 45 62 213 214 242 19 226
253 254 255 245 252 252 259 273 292 292 299 302 299 302 305 287 189 177 177 217 296 301 62 265 210 193 179 185 242 217 159 158 55 153 140 108 89 128 137 203 123 290 189 114 150 65 274
280 262 256 250 251 251 253 265 276 292 293 301 299 298 300 235 184 175 166 229 160 285 339 170 161 161 162 154 145 42 129 124 143 138 117 230 102 68 162 205 146 211 200 95 83 118 46
288 280 261 254 251 252 252 256 267 281 287 291 296 292 285 270 215 187 185 164 130 44 260 166 138 165 115 130 112 127 126 91 112 97 45 112 88 80 119 95 112 128 91 47 51 87 7
273 273 269 262 252 247 249 251 254 267 281 290 292 284 275 252 228 201 186 153 60 162 358 200 183 161 148 167 133 110 71 68 159 115 230 33 150 63 73 106 71 84 66 340 349 3 231
264 261 265 263 263 258 248 246 248 258 272 286 292 282 263 244 212 200 174 62 150 229 213 116 126 99 176 160 202 136 93 281 247 102 117 148 314 129 22 83 219 88 135 144 280 293 285
260 256 254 255 240 249 269 272 252 253 265 281 289 283 264 224 205 191 179 109 201 204 180 154 101 129 217 201 152 135 186 221 219 180 159 140 259 56 65 69 87 120 37 177 103 11 5
257 256 254 251 240 237 243 259 271 251 265 273 284 282 233 201 182 182 100 224 226 205 99 123 200 158 180 206 164 169 183 199 196 237 215 189 87 349 55 106 42 55 161 56 21 94 291
264 263 258 253 247 240 244 245 257 261 260 264 273 257 198 184 171 170 181 224 236 219 146 173 229 188 200 183 174 196 211 190 144 174 243 136 108 311 28 195 180 63 33 55 114 118 170
258 265 267 259 251 243 242 243 251 234 230 241 250 243 182 174 144 118 173 214 220 200 173 168 164 223 187 165 169 217 209 199 151 156 185 200 136 188 215 134 118 189 200 146 117 235 80
252 258 261 259 246 244 237 238 238 227 216 204 238 248 186 185 163 234 261 267 257 179 215 174 180 142 358 192 173 191 177 162 154 138 160 201 261 16 308 19 11 219 195 116 108 92 200
248 250 253 251 245 239 234 225 227 228 217 196 228 259 198 196 203 158 189 245 232 221 233 190 173 125 112 266 355 183 171 128 231 138 125 93 159 180 196 201 132 192 189 172 138 126 184
237 242 247 247 239 236 234 226 216 219 208 198 205 249 202 218 234 188 159 262 196 217 217 190 222 197 160 189 286 220 121 127 135 160 114 121 235 191 252 229 191 214 186 179 194 187 185
231 234 237 236 240 240 237 222 216 214 207 205 185 215 226 261 177 153 167 244 208 210 162 231 182 211 174 170 190 232 153 197 195 109 164 68 240 207 284 351 206 255 223 199 214 223 266
226 232 233 236 240 251 253 229 216 209 207 201 204 200 204 288 215 121 207 204 218 205 231 220 209 139 178 228 189 247 192 174 159 150 173 150 143 110 266 340 320 290 223 190 188 205 175
223 227 233 235 239 244 255 236 220 211 208 205 202 186 179 255 181 216 210 186 202 243 244 191 172 159 154 126 105 90 78 84 91 69 135 141 118 107 236 347 288 243 161 181 206 214 213
219 223 229 235 240 239 240 237 226 215 207 207 204 195 180 226 207 289 240 220 148 4 335 271 212 165 151 118 69 63 354 12 37 32 64 99 120 93 140 207 293 233 199 162 172 270 206
217 219 224 228 233 232 232 233 231 222 212 208 202 200 176 144 228 222 255 254 222 205 326 243 190 176 161 93 95 157 198 214 254 209 94 72 73 122 109 155 240 245 186 193 184 295 204
217 219 221 221 225 223 223 228 231 227 216 208 207 205 201 196 217 204 200 204 181 172 140 189 166 164 184 85 114 161 217 161 195 189 173 106 26 173 180 226 285 234 159 146 113 236 177
218 217 222 217 216 215 219 224 226 222 220 213 208 198 200 191 209 225 232 249 264 212 164 157 96 225 48 132 147 214 183 211 154 165 183 167 151 191 96 94 270 156 116 171 230 192 186
214 214 218 217 212 209 214 221 228 225 218 216 214 204 204 209 220 224 239 240 237 237 300 193 284 199 191 102 229 109 199 149 174 222 48 233 188 181 186 212 248 188 212 210 243 239 214